Vertical_Velocity
1 -5 -4 -4 -2 3 -0 -3 -0 -1 2 -2 -4 -5 -9 -0 -3 -2 1 1 -2 -1 -3 -0 1 0 -4 -5 3 3 -7 0 -1 3 -2 -1 1 -3 -0 2 -1 1 1
-2 -3 1 -3 -8 2 6 -1 -2 1 -1 -1 -2 -3 -2 -3 -1 -1 -4 -2 -1 1 0 -4 -3 6 0 -1 -0 25 -3 -4 -14 -4 6 -4 -5 -13 3 1 -1 -4 2
-6 -3 -1 6 1 -5 0 3 2 5 4 -1 -1 -2 1 -5 -3 -5 -8 -5 2 3 2 0 -1 2 5 4 -1 3 -14 1 -1 3 -3 3 -9 5 -1 -3 -1 2 -0
3 2 0 -1 7 11 5 6 8 5 10 2 -1 -0 2 -0 -4 -5 -2 -3 1 -2 -1 4 -0 1 8 5 -2 1 2 5 -3 5 1 -4 4 0 -1 -1 0 -2 -3
3 0 -0 1 1 -2 -0 2 0 -3 2 2 -3 -1 -2 -0 2 -3 -1 1 -0 3 4 6 1 6 5 -2 2 4 -8 -3 10 8 -2 6 4 1 2 -2 -4 -4 2
-1 6 5 12 8 5 2 -2 -3 -4 -0 4 1 0 5 5 -1 0 -1 -1 -2 -1 -1 -4 8 16 5 -1 2 2 10 7 17 -14 -3 3 -8 -11 -1 1 -2 3 2
0 2 -2 -0 0 -4 -3 -2 -3 2 3 3 1 -3 -3 -1 0 -6 0 -3 8 5 -4 -1 -3 -4 1 3 1 8 10 -21 -16 -1 -1 11 2 3 8 15 -0 0 5
5 5 1 -6 -3 15 -1 2 1 -3 -8 -1 1 0 -3 5 1 6 -2 1 0 3 4 -0 30 34 16 10 7 0 6 8 9 9 14 10 12 11 -2 12 11 0 -8
1 -0 -3 3 18 -26 -2 13 8 11 12 5 2 4 2 2 9 9 2 2 6 -4 5 8 3 -4 -4 1 -3 13 -9 2 -4 -8 7 14 12 4 0 0 -1 4 7
-13 -11 4 -4 -5 1 5 5 3 -4 12 2 12 7 3 4 0 -2 5 -1 -2 -2 3 2 5 5 16 10 0 -0 -3 -17 -14 -9 -11 -8 -6 -2 -1 10 0 -1 3
-3 -8 5 8 -0 5 3 -1 -14 0 11 11 -3 4 2 2 -0 3 2 1 -2 3 -2 -2 1 -0 5 8 2 6 9 -0 4 5 3 -2 4 -11 -12 -8 -2 -4 4
3 -1 -5 1 -1 12 -1 -8 1 -4 -4 3 1 1 -1 -1 1 -1 -0 -1 2 -3 -1 1 2 -0 1 3 5 1 8 20 17 -2 -6 -7 -1 -6 2 3 -2 0 3
1 -1 -2 -3 0 -8 1 2 3 4 5 5 4 3 1 -1 -0 -0 -0 1 -2 -4 -0 -2 -5 1 2 -1 -2 -5 -2 5 -0 -2 -4 13 42 17 5 0 -4 -0 9
3 2 2 4 1 2 -2 -2 0 1 -0 -2 -3 -2 -4 -4 -1 -0 -1 -1 -1 -1 -3 -2 -0 -2 -2 -2 -1 -0 -0 3 1 -0 3 0 -9 -9 5 15 10 -5 11
0 1 2 1 -1 1 3 4 5 1 -0 2 2 2 0 -1 -1 -0 0 -1 -1 -2 -3 -2 2 2 1 -0 -3 1 -1 -2 -3 -1 -1 3 10 6 4 -1 5 1 5
-1 -0 1 -0 1 1 -0 -3 -4 -7 -7 -5 -3 -1 3 3 1 1 -2 -0 2 1 -5 -7 -5 -5 -4 -3 -4 -2 -6 -3 -1 -4 -1 1 0 0 1 4 3 5 4
0 -1 -2 -3 -1 1 2 4 3 3 1 2 2 -1 -3 -5 -6 -5 -4 -1 -3 -2 -3 -7 -8 -8 -7 -4 -3 -3 -2 -0 -1 -2 -4 -6 1 2 1 -1 4 8 3
-0 -2 -3 -2 -1 -3 -2 -4 -3 -0 1 -0 -2 -1 0 0 2 3 3 2 4 8 8 7 6 4 3 3 -3 -1 -4 -5 -5 -2 -1 -1 -8 -3 -0 1 2 2 1
-2 -0 1 1 -0 0 -1 0 1 0 2 4 4 4 3 1 3 0 -2 -5 -7 -6 -9 -5 -8 -6 -6 -4 -3 -3 -6 -3 -3 1 -0 -1 -5 1 -2 -3 1 -2 -6
0 -1 -1 -1 -1 -0 -0 0 -1 1 1 1 -1 -3 -3 -4 -6 -4 -2 0 -1 -2 -2 -3 6 6 -2 6 0 1 1 -7 -2 -6 1 4 -0 -3 1 1 7 -5 -8
-1 -2 -2 -2 -2 -0 -0 0 1 0 -2 -2 -1 -3 -2 -0 -2 -1 -1 -4 -5 -5 -6 -9 -1 7 5 1 -1 1 4 -1 -4 -1 -7 -8 -1 3 -0 12 -1 2 2
-1 -2 -2 -2 -1 -0 -1 -3 -4 -1 -0 -1 2 7 3 2 -2 -4 1 2 -1 -0 -4 -14 -17 -10 -14 -9 1 -3 -2 2 4 -0 0 -5 -4 9 -2 1 3 3 11
-2 -3 -3 -2 -1 -0 -0 1 3 2 2 4 2 -4 -2 3 1 -6 -5 -10 -12 -12 -7 -1 -3 -6 -0 2 -8 -7 -4 -2 -1 2 -2 -1 -1 4 -9 1 -2 4 13
-1 0 1 2 2 1 2 2 2 2 2 0 1 -0 -4 -8 -9 -8 -6 -6 -1 -2 -1 -0 -2 -9 -13 -6 -2 -3 -5 1 1 -2 -6 -3 -0 1 5 2 -5 8 1
-2 -1 1 1 2 2 2 4 3 0 -3 -3 -5 -8 -8 -8 -9 0 -7 -7 3 8 2 1 1 -2 -5 0 3 4 3 2 4 2 3 -2 -5 -4 -7 4 1 1 2
1 1 1 -0 -1 -1 -1 -3 -2 -1 1 3 -1 -4 -5 -6 -3 -5 -8 9 4 2 5 5 9 -3 3 5 4 5 2 4 4 1 3 -3 -3 -3 -1 0 3 -0 -0
Height
1461 1462 1465 1468 1470 1471 1474 1478 1482 1487 1489 1491 1492 1495 1496 1498 1499 1499 1500 1501 1502 1503 1504 1504 1505 1506 1508 1509 1512 1514 1517 1522 1528 1531 1532 1531 1531 1531 1531 1533 1535 1536 1538
1457 1455 1456 1459 1462 1463 1467 1471 1474 1480 1483 1485 1487 1488 1490 1491 1491 1492 1493 1494 1494 1494 1495 1496 1497 1498 1498 1499 1503 1503 1507 1511 1518 1524 1528 1527 1525 1525 1524 1526 1528 1530 1532
1452 1451 1451 1452 1455 1457 1459 1463 1468 1473 1476 1479 1481 1482 1483 1483 1484 1485 1485 1486 1486 1486 1486 1485 1486 1488 1490 1491 1495 1500 1503 1505 1511 1516 1521 1525 1519 1519 1517 1519 1521 1523 1525
1448 1446 1447 1449 1450 1451 1454 1457 1460 1465 1468 1472 1473 1475 1476 1477 1478 1478 1479 1477 1476 1474 1474 1474 1475 1476 1478 1482 1485 1489 1494 1499 1501 1508 1511 1515 1515 1514 1513 1511 1512 1515 1517
1448 1445 1446 1446 1447 1447 1448 1451 1454 1458 1462 1465 1467 1469 1471 1472 1473 1472 1470 1468 1465 1462 1462 1463 1465 1467 1469 1473 1478 1482 1488 1491 1497 1498 1504 1508 1509 1509 1511 1508 1507 1508 1509
1452 1448 1449 1447 1446 1447 1447 1449 1451 1454 1457 1459 1462 1465 1467 1468 1467 1465 1461 1458 1455 1456 1456 1457 1458 1460 1463 1467 1471 1474 1479 1486 1491 1490 1499 1501 1500 1501 1503 1502 1502 1503 1500
1454 1453 1451 1448 1448 1447 1444 1444 1446 1450 1453 1456 1459 1462 1464 1465 1464 1461 1457 1454 1453 1453 1453 1453 1455 1456 1458 1460 1462 1467 1473 1479 1485 1489 1489 1492 1491 1493 1496 1496 1496 1496 1495
1460 1455 1454 1451 1451 1449 1440 1439 1443 1446 1449 1451 1455 1459 1462 1461 1461 1459 1457 1455 1453 1453 1452 1452 1450 1452 1451 1456 1461 1467 1473 1476 1478 1479 1482 1485 1485 1486 1488 1490 1490 1488 1488
1465 1462 1460 1455 1451 1451 1445 1440 1439 1443 1446 1448 1451 1454 1455 1456 1457 1456 1455 1455 1453 1454 1454 1453 1452 1453 1455 1457 1460 1463 1466 1469 1471 1474 1475 1476 1476 1475 1480 1481 1481 1480 1479
1473 1470 1466 1465 1461 1457 1450 1445 1441 1443 1445 1446 1448 1449 1451 1452 1454 1455 1454 1453 1454 1454 1454 1453 1453 1453 1454 1454 1455 1457 1460 1463 1464 1466 1467 1468 1469 1470 1471 1471 1471 1470 1470
1481 1474 1471 1470 1466 1462 1459 1455 1453 1449 1446 1445 1448 1449 1450 1451 1453 1453 1453 1452 1453 1451 1453 1453 1452 1452 1452 1453 1454 1453 1453 1456 1457 1458 1459 1458 1459 1458 1460 1460 1459 1458 1459
1483 1479 1474 1469 1467 1463 1461 1458 1455 1454 1453 1453 1451 1451 1452 1452 1452 1452 1452 1452 1451 1450 1450 1450 1450 1448 1450 1448 1446 1446 1446 1447 1448 1447 1447 1444 1446 1444 1445 1447 1447 1446 1447
1483 1479 1476 1471 1468 1466 1462 1460 1459 1457 1456 1455 1454 1453 1452 1452 1452 1451 1451 1449 1449 1449 1448 1446 1446 1444 1444 1444 1443 1441 1439 1438 1438 1437 1435 1433 1432 1429 1430 1430 1432 1434 1433
1480 1478 1476 1473 1470 1467 1465 1463 1460 1459 1458 1456 1456 1455 1453 1453 1451 1450 1449 1448 1447 1445 1443 1443 1441 1439 1438 1437 1435 1433 1431 1429 1428 1427 1424 1423 1423 1422 1421 1418 1416 1418 1418
1479 1477 1475 1473 1470 1467 1465 1463 1461 1459 1458 1457 1456 1455 1454 1453 1452 1450 1448 1446 1444 1442 1441 1439 1437 1434 1431 1428 1426 1424 1421 1419 1416 1414 1413 1413 1411 1409 1410 1409 1407 1410 1410
1477 1475 1474 1472 1471 1469 1467 1465 1463 1461 1459 1457 1455 1453 1451 1450 1447 1445 1443 1441 1438 1436 1434 1432 1429 1427 1425 1422 1420 1416 1412 1409 1405 1402 1400 1400 1399 1398 1398 1399 1399 1400 1398
1475 1474 1472 1471 1469 1468 1466 1465 1462 1460 1457 1455 1452 1450 1449 1446 1444 1441 1437 1434 1431 1427 1425 1422 1419 1417 1416 1415 1413 1409 1404 1400 1397 1394 1391 1388 1387 1387 1387 1386 1387 1387 1387
1471 1471 1470 1469 1468 1467 1465 1463 1460 1457 1455 1452 1449 1447 1444 1442 1439 1435 1432 1428 1425 1422 1420 1418 1415 1411 1407 1403 1400 1400 1397 1394 1390 1386 1383 1379 1377 1376 1376 1376 1375 1374 1376
1468 1468 1468 1468 1467 1465 1462 1460 1458 1456 1453 1450 1448 1445 1443 1440 1437 1434 1431 1428 1425 1422 1419 1416 1411 1407 1403 1399 1395 1392 1389 1385 1381 1379 1377 1374 1370 1368 1366 1367 1367 1365 1365
1465 1466 1466 1466 1464 1462 1460 1458 1456 1454 1452 1450 1446 1444 1441 1439 1435 1432 1428 1425 1421 1418 1415 1412 1408 1402 1397 1394 1390 1387 1383 1377 1373 1372 1368 1365 1363 1361 1358 1359 1358 1357 1356
1462 1463 1463 1462 1460 1459 1458 1456 1454 1453 1450 1447 1444 1441 1439 1435 1432 1429 1425 1421 1418 1414 1410 1405 1402 1396 1393 1388 1384 1381 1377 1371 1366 1362 1357 1354 1355 1353 1350 1348 1350 1346 1349
1459 1459 1459 1458 1457 1456 1455 1454 1452 1449 1446 1444 1442 1438 1435 1432 1428 1425 1422 1418 1413 1409 1404 1400 1395 1390 1386 1382 1376 1372 1370 1367 1362 1355 1350 1346 1345 1343 1343 1341 1339 1340 1342
1454 1454 1454 1454 1453 1452 1451 1450 1448 1445 1443 1440 1436 1433 1431 1429 1425 1421 1418 1414 1410 1406 1402 1398 1392 1386 1380 1373 1368 1366 1362 1358 1353 1348 1343 1339 1337 1335 1333 1332 1332 1334 1333
1449 1450 1450 1450 1449 1448 1447 1445 1443 1440 1438 1434 1431 1428 1426 1423 1421 1419 1416 1413 1408 1404 1398 1394 1386 1381 1375 1370 1365 1359 1354 1349 1343 1338 1334 1331 1329 1327 1326 1325 1325 1325 1325
1445 1446 1447 1446 1445 1444 1442 1441 1439 1436 1433 1430 1427 1424 1422 1420 1419 1416 1414 1411 1406 1402 1396 1390 1384 1377 1372 1366 1362 1356 1348 1340 1334 1329 1325 1322 1321 1321 1320 1318 1319 1320 1321
1440 1441 1441 1441 1442 1441 1439 1436 1433 1430 1428 1425 1423 1421 1419 1418 1416 1413 1407 1406 1402 1397 1392 1386 1381 1375 1369 1361 1353 1346 1337 1330 1324 1319 1317 1315 1315 1316 1315 1314 1314 1315 1316